| time (UTC) | temp F | wind direction | speed knots | gust knots | rain 1hr in | rain 24hr in | rain mn in | humidity % | barometer mb |
| 20260506110052 | 64 | 156 | 3.5 | 13.9 | 0.00 | 0.00 | 0.00 | 69 | 1014.1 |
| 20260506104550 | 64 | 156 | 2.6 | 16.5 | 0.00 | 0.00 | 0.00 | 70 | 1013.9 |
| 20260506103046 | 63 | 258 | 7.0 | 15.6 | 0.00 | 0.00 | 0.00 | 71 | 1013.7 |
| 20260506101544 | 62 | 226 | 7.8 | 18.2 | 0.00 | 0.00 | 0.00 | 73 | 1013.5 |
| 20260506100046 | 61 | 240 | 5.2 | 13.0 | 0.00 | 0.00 | 0.00 | 74 | 1013.4 |
| 20260506094545 | 60 | 276 | 6.1 | 13.9 | 0.00 | 0.00 | 0.00 | 76 | 1013.5 |
| 20260506093102 | 59 | 210 | 2.6 | 14.8 | 0.00 | 0.00 | 0.00 | 77 | 1013.5 |
| 20260506091545 | 55 | 303 | 3.5 | 12.2 | 0.00 | 0.00 | 0.00 | 84 | 1013.4 |
| 20260506090040 | 50 | 149 | 4.3 | 13.9 | 0.00 | 0.00 | 0.00 | 83 | 1013.2 |
| 20260506084536 | 55 | 132 | 1.7 | 8.7 | 0.00 | 0.00 | 0.00 | 80 | 1013.1 |
| 20260506083037 | 50 | 241 | 1.7 | 15.6 | 0.00 | 0.00 | 0.00 | 88 | 1012.8 |
| 20260506081532 | 48 | 156 | 3.5 | 7.0 | 0.00 | 0.00 | 0.00 | 88 | 1012.7 |
| 20260506073025 | 49 | 134 | 1.7 | 7.8 | 0.00 | 0.00 | 0.00 | 84 | 1012.9 |
| 20260506071523 | 51 | 109 | 2.6 | 7.8 | 0.00 | 0.00 | 0.00 | 79 | 1012.8 |
| 20260506061512 | 59 | 243 | 2.6 | 9.6 | 0.00 | 0.00 | 0.00 | 72 | 1012.8 |
| 20260506044616 | 60 | 227 | 7.0 | 15.6 | 0.00 | 0.00 | 0.00 | 68 | 1012.3 |
| 20260506043058 | 60 | 233 | 5.2 | 14.8 | 0.00 | 0.00 | 0.00 | 69 | 1012.3 |
| 20260506041607 | 60 | 265 | 7.0 | 17.4 | 0.00 | 0.00 | 0.00 | 68 | 1012.0 |
| 20260506040055 | 61 | 274 | 7.0 | 16.5 | 0.00 | 0.00 | 0.00 | 67 | 1012.1 |
| 20260506034548 | 61 | 237 | 4.3 | 14.8 | 0.00 | 0.00 | 0.00 | 66 | 1011.8 |
| 20260506033050 | 62 | 231 | 6.1 | 13.9 | 0.00 | 0.00 | 0.00 | 65 | 1011.8 |
| 20260506031547 | 62 | 237 | 7.0 | 17.4 | 0.00 | 0.00 | 0.00 | 64 | 1011.7 |
| 20260506030041 | 62 | 247 | 7.0 | 22.6 | 0.00 | 0.00 | 0.00 | 64 | 1011.7 |
| 20260506024541 | 62 | 260 | 7.8 | 17.4 | 0.00 | 0.00 | 0.00 | 63 | 1011.7 |
| 20260506023050 | 62 | 260 | 7.8 | 17.4 | 0.00 | 0.00 | 0.00 | 63 | 1011.8 |
| 20260506021538 | 62 | 252 | 9.6 | 22.6 | 0.00 | 0.00 | 0.00 | 62 | 1011.7 |
| 20260506020108 | 62 | 250 | 7.8 | 17.4 | 0.00 | 0.00 | 0.00 | 62 | 1011.5 |
| 20260506014537 | 63 | 227 | 12.2 | 23.5 | 0.00 | 0.00 | 0.00 | 61 | 1011.6 |
| 20260506013035 | 63 | 245 | 7.0 | 17.4 | 0.00 | 0.00 | 0.00 | 59 | 1011.5 |
| 20260506011536 | 63 | 266 | 8.7 | 20.0 | 0.00 | 0.00 | 0.00 | 58 | 1011.3 |
| 20260506010034 | 63 | 245 | 5.2 | 14.8 | 0.00 | 0.00 | 0.00 | 57 | 1011.2 |
| 20260506004539 | 63 | 207 | 5.2 | 15.6 | 0.00 | 0.00 | 0.00 | 56 | 1011.2 |
| 20260506003031 | 62 | 256 | 3.5 | 11.3 | 0.00 | 0.00 | 0.00 | 56 | 1011.0 |
| 20260506001530 | 61 | 252 | 4.3 | 13.9 | 0.00 | 0.00 | 0.00 | 57 | 1011.0 |
| 20260506000043 | 58 | 179 | 2.6 | 8.7 | 0.00 | 0.00 | 0.00 | 63 | 1011.0 |
| 20260505234527 | 52 | 116 | 0.0 | 5.2 | 0.00 | 0.00 | 0.00 | 66 | 1010.8 |
| 20260505233027 | 61 | 249 | 1.7 | 6.1 | 0.00 | 0.00 | 0.00 | 58 | 1010.6 |
| 20260505231626 | 61 | 239 | 0.9 | 4.3 | 0.00 | 0.00 | 0.00 | 58 | 1010.4 |
| 20260505230039 | 60 | 147 | 0.9 | 4.3 | 0.00 | 0.00 | 0.00 | 59 | 1010.3 |
| 20260505224525 | 60 | 148 | 2.6 | 4.3 | 0.00 | 0.00 | 0.00 | 58 | 1010.2 |
| 20260505223024 | 61 | 153 | 0.9 | 4.3 | 0.00 | 0.00 | 0.00 | 55 | 1010.3 |
| 20260505221524 | 67 | 112 | 3.5 | 6.1 | 0.00 | 0.00 | 0.00 | 46 | 1010.4 |
| 20260505220023 | 70 | 266 | 0.9 | 15.6 | 0.00 | 0.00 | 0.00 | 41 | 1010.2 |
| 20260505214524 | 70 | 258 | 3.5 | 16.5 | 0.00 | 0.00 | 0.00 | 42 | 1010.3 |
| 20260505213026 | 71 | 234 | 2.6 | 11.3 | 0.00 | 0.00 | 0.00 | 46 | 1009.9 |
| 20260505211529 | 69 | 170 | 2.6 | 10.4 | 0.00 | 0.00 | 0.00 | 50 | 1010.1 |
| 20260505210020 | 67 | 162 | 1.7 | 9.6 | 0.00 | 0.00 | 0.00 | 51 | 1010.0 |
| 20260505204519 | 68 | 82 | 2.6 | 7.0 | 0.00 | 0.00 | 0.00 | 50 | 1009.9 |
| 20260505203019 | 70 | 101 | 2.6 | 7.0 | 0.00 | 0.00 | 0.00 | 48 | 1009.8 |
| 20260505201517 | 71 | 107 | 2.6 | 10.4 | 0.00 | 0.00 | 0.00 | 46 | 1009.8 |
| 20260505200017 | 77 | 202 | 2.6 | 7.8 | 0.00 | 0.00 | 0.00 | 38 | 1009.7 |
| 20260505194513 | 76 | 200 | 7.0 | 14.8 | 0.00 | 0.00 | 0.00 | 33 | 1009.7 |
| 20260505193011 | 76 | 258 | 7.8 | 20.9 | 0.00 | 0.00 | 0.00 | 34 | 1009.8 |
| 20260505191513 | 76 | 218 | 8.7 | 21.7 | 0.00 | 0.00 | 0.00 | 36 | 1009.7 |
| 20260505190014 | 76 | 233 | 6.1 | 18.2 | 0.00 | 0.00 | 0.00 | 38 | 1009.6 |
| 20260505184507 | 76 | 260 | 9.6 | 20.0 | 0.00 | 0.00 | 0.00 | 38 | 1009.7 |
| 20260505183011 | 76 | 232 | 8.7 | 21.7 | 0.00 | 0.00 | 0.00 | 37 | 1009.7 |
| 20260505181505 | 75 | 269 | 7.8 | 28.7 | 0.00 | 0.00 | 0.00 | 38 | 1009.5 |
| 20260505180004 | 75 | 232 | 10.4 | 20.9 | 0.00 | 0.00 | 0.00 | 38 | 1009.7 |
| 20260505174502 | 74 | 257 | 7.8 | 21.7 | 0.00 | 0.00 | 0.00 | 40 | 1009.7 |
| 20260505173059 | 74 | 238 | 7.8 | 20.0 | 0.00 | 0.00 | 0.00 | 42 | 1009.7 |
| 20260505171602 | 66 | 232 | 6.1 | 11.3 | 0.00 | 0.00 | 0.00 | 53 | 1009.8 |
| 20260505170054 | 61 | 117 | 2.6 | 8.7 | 0.00 | 0.00 | 0.00 | 62 | 1010.3 |
| 20260505164554 | 60 | 116 | 4.3 | 11.3 | 0.00 | 0.06 | 0.00 | 63 | 1010.3 |
| 20260505163053 | 61 | 113 | 6.1 | 11.3 | 0.00 | 0.06 | 0.00 | 60 | 1010.5 |
| 20260505161553 | 62 | 106 | 3.5 | 13.0 | 0.00 | 0.06 | 0.00 | 60 | 1010.2 |
| 20260505153053 | 63 | 230 | 4.3 | 13.0 | 0.00 | 0.18 | 0.00 | 59 | 1010.4 |
| 20260505151551 | 66 | 78 | 3.5 | 14.8 | 0.00 | 0.18 | 0.00 | 54 | 1010.4 |
| 20260505124525 | 59 | 289 | 7.8 | 13.9 | 0.00 | 0.34 | 0.00 | 53 | 1010.6 |
| 20260505123030 | 58 | 277 | 4.3 | 13.9 | 0.00 | 0.34 | 0.00 | 54 | 1010.2 |
| 20260505121522 | 58 | 283 | 7.0 | 14.8 | 0.00 | 0.34 | 0.00 | 56 | 1010.1 |
| 20260505120014 | 56 | 257 | 3.5 | 10.4 | 0.00 | 0.34 | 0.00 | 64 | 1009.9 |
| 20260505114512 | 54 | 192 | 1.7 | 7.0 | 0.00 | 0.37 | 0.00 | 69 | 1009.9 |
| 20260505113012 | 53 | 173 | 2.6 | 7.8 | 0.00 | 0.37 | 0.00 | 69 | 1009.8 |
| 20260505111504 | 52 | 173 | 1.7 | 10.4 | 0.00 | 0.37 | 0.00 | 71 | 1009.7 |